Weather History for York, PA

Change the Weather History Date:

Friday, November 30, 2012

  Actual Average Record
Temperature  
Mean Temperature 36 °F -  
Max Temperature 50 °F 50 °F 80 °F (1998)
Min Temperature 23 °F 34 °F 17 °F (2013)
Degree Days  
Heating Degree Days 28    
Moisture  
Dew Point 25 °F    
Average Humidity 70    
Maximum Humidity 88    
Minimum Humidity 39    
Precipitation  
Precipitation 0.00 in - - ()
Sea Level Pressure  
Sea Level Pressure 30.36 in    
Wind  
Wind Speed 1 mph (East)    
Max Wind Speed 8 mph    
Max Gust Speed -    
Visibility 8 miles    
Events      
Averages and records for this station are not official NWS values.
T = Trace of Precipitation, MM = Missing Value Source: NWS Daily Summary

Daily Weather History Graph

Daily Weather History Graph

Search for Another Location

Airport:

Trip Planner

Search our weather history database for the weather conditions in past years. The results will help you decide how hot, cold, wet, or windy it might be!

Date:

Astronomy

Nov. 30, 2012 Rise Set
Actual Time 7:09 AM EST 4:43 PM EST
Civil Twilight 6:39 AM EST 5:13 PM EST
Nautical Twilight 6:05 AM EST 5:46 PM EST
Astronomical Twilight 5:33 AM EST 6:19 PM EST
Moon 6:36 PM EST (11/30) 8:39 AM EST (11/30)
Length of Visible Light 10h 33m
Length of Day
9h 33m
Waning Gibbous, 96% of the Moon is Illuminated
Nov 30
Waning Gibbous
Dec 6
Last Quarter
Dec 13
New
Dec 20
First Quarter
Dec 28
Full

Hourly Weather History & Observations

Time (EST) Temp. Windchill Dew Point Humidity Pressure Visibility Wind Dir Wind Speed Gust Speed Precip Events Conditions
12:53 AM 25.0 °F - 21.0 °F 85% 30.34 in 8.0 mi Calm Calm - N/A   Clear
1:53 AM 24.1 °F - 21.0 °F 88% 30.35 in 8.0 mi Calm Calm - N/A   Clear
2:53 AM 24.1 °F - 21.0 °F 88% 30.35 in 8.0 mi Calm Calm - N/A   Clear
3:53 AM 24.1 °F - 19.9 °F 84% 30.35 in 7.0 mi Calm Calm - N/A   Clear
4:53 AM 24.1 °F - 19.0 °F 81% 30.34 in 9.0 mi Calm Calm - N/A   Clear
5:53 AM 23.0 °F - 19.9 °F 88% 30.36 in 7.0 mi Calm Calm - N/A   Clear
7:53 AM 28.0 °F - 24.1 °F 85% 30.39 in 6.0 mi Calm Calm - N/A   Overcast
8:53 AM 30.9 °F - 27.0 °F 85% 30.39 in 5.0 mi Calm Calm - N/A   Scattered Clouds
9:53 AM 37.0 °F - 28.0 °F 70% 30.38 in 5.0 mi Calm Calm - N/A   Haze
10:53 AM 39.9 °F - 28.0 °F 63% 30.38 in 8.0 mi Calm Calm - N/A   Clear
11:53 AM 44.1 °F 40.8 °F 28.0 °F 53% 30.36 in 9.0 mi East 5.8 mph - N/A   Clear
12:53 PM 48.0 °F - 25.0 °F 41% 30.35 in 10.0 mi ENE 4.6 mph - N/A   Clear
1:53 PM 50.0 °F - 26.1 °F 39% 30.33 in 10.0 mi NE 5.8 mph - N/A   Clear
2:53 PM 48.9 °F - 26.1 °F 41% 30.32 in 10.0 mi ENE 8.1 mph - N/A   Mostly Cloudy
3:53 PM 46.9 °F - 28.0 °F 48% 30.32 in 10.0 mi East 6.9 mph - N/A   Clear
4:53 PM 43.0 °F 40.3 °F 26.1 °F 51% 30.34 in 10.0 mi ESE 4.6 mph - N/A   Clear
5:53 PM 39.0 °F - 27.0 °F 62% 30.35 in 10.0 mi Calm Calm - N/A   Clear
6:53 PM 35.1 °F - 28.0 °F 76% 30.37 in 10.0 mi Calm Calm - N/A   Mostly Cloudy
7:53 PM 39.9 °F 37.8 °F 28.0 °F 63% 30.36 in 10.0 mi ESE 3.5 mph - N/A   Overcast
8:53 PM 35.1 °F - 28.0 °F 76% 30.38 in 9.0 mi Calm Calm - N/A   Clear
9:53 PM 30.0 °F - 26.1 °F 85% 30.38 in 7.0 mi Calm Calm - N/A   Partly Cloudy
10:53 PM 30.9 °F - 26.1 °F 82% 30.39 in 7.0 mi Calm Calm - N/A   Scattered Clouds
11:53 PM 32.0 °F 27.5 °F 27.0 °F 82% 30.38 in 8.0 mi ESE 4.6 mph - N/A   Clear